User: anonymous   Login
Location: Newark
(50.8311°N, 16.5142°E)
Time: 12:36:56
(UTC+00:00)
Language:

UKube-1 - Orbit

View from above orbital plane
View from above orbital plane
View from above satellite
View from above satellite

Ground track
Ground track

The orbit data is extracted from the following two-line orbital elements,

1 40074U 14037F   19348.83673871 +.00000257 +00000-0 +37961-4 0  9992
2 40074 098.4490 161.1689 0004995 014.9400 345.1954 14.84154608294229
Epoch (UTC): 14 December 2019 20:04:54
Eccentricity: 0.0004995
inclination: 98.4490°
perigee height: 613 km
apogee height: 620 km
right ascension of ascending node: 161.1689°
argument of perigee: 14.9400°
revolutions per day: 14.84154608
mean anomaly at epoch: 345.1954°
orbit number at epoch: 29422

The dashed part of the orbit path shows where the satellite is in the earth's shadow,  

DLR